Location: Derby
(52.9213°N, 1.4761°W)
Time: 14:34:29
(UTC+01:00)

Explorer 7 - Visible Passes

Search period start: 18 May 2025 00:00
Search period end: 28 May 2025 00:00
Orbit: 446 x 574 km, 50.3° (Epoch: 17 May)

Date Brightness Start Highest point End Pass type
(mag) Time Alt. Az. Time Alt. Az. Time Alt. Az.
18 May 8.9 03:53:22 10° S 03:55:26 14° SE 03:57:34 10° ESE visible
19 May 8.7 03:34:38 10° S 03:36:50 15° SE 03:39:05 10° ESE visible
20 May 8.6 03:16:26 12° S 03:18:13 16° SE 03:20:35 10° ESE visible
21 May 8.5 02:58:19 14° SSE 02:59:35 16° SE 03:02:03 10° ESE visible
22 May 8.3 02:40:08 16° SSE 02:40:56 17° SE 02:43:29 10° ESE visible
23 May 8.2 02:21:54 18° SSE 02:22:16 18° SE 02:24:54 10° E visible
23 May 7.0 03:56:58 10° WSW 04:00:33 46° SSE 04:04:19 10° E visible
24 May 8.2 02:03:36 19° SE 02:03:36 19° SE 02:06:17 10° E visible
24 May 7.0 03:38:23 10° WSW 03:41:53 47° SSE 03:45:38 10° E visible
25 May 8.1 01:45:15 19° SE 01:45:15 19° SE 01:47:39 10° E visible
25 May 6.9 03:20:01 13° WSW 03:23:12 48° SSE 03:26:57 10° E visible
26 May 8.1 01:26:49 20° SE 01:26:49 20° SE 01:29:00 10° E visible
26 May 6.8 03:01:35 14° WSW 03:04:31 49° SSE 03:08:14 10° E visible
27 May 8.1 01:08:18 20° SE 01:08:18 20° SE 01:10:19 10° E visible
27 May 6.7 02:43:05 16° WSW 02:45:48 50° SSE 02:49:30 10° E visible
